Regional Weather Roundup
Issued by NWS Green Bay, WI

Home | Current Version | Previous Version | Graphics & Text | Print | Product List | Glossary Off
Versions: 1 2 3 4 5 6 7 8 9 10 11 12 13 14 15 16 17 18 19 20 21 22 23 24 25 26 27 28 29 30 31 32 33 34 35 36 37 38 39 40 41 42 43 44 45 46 47 48 49 50

000
ASUS43 KGRB 211110
RWRGRB

NORTH-CENTRAL AND NORTHEAST WISCONSIN REGIONAL WEATHER ROUNDUP
NATIONAL WEATHER SERVICE GREEN BAY WI
500 AM CST SUN DEC 21 2014

WIZ005-009-010>012-018-019-211200-
NORTH CENTRAL WISCONSIN

CITY           SKY/WX    TMP DP  RH WIND       PRES   REMARKS
IRONWOOD       CLOUDY    30  27  86 SW10G16   29.98F
MANITOWISH WTR CLOUDY    27  27 100 S10       30.01F FOG
ARBOR VITAE    CLOUDY    29  28  93 S7        30.03F FOG
EAGLE RIVER    CLOUDY    27  27 100 S6        30.04S FOG
LAND O LAKES   CLOUDY    28  27  96 S7        30.03F FOG
RHINELANDER    CLOUDY    26  25  96 S7        30.05F FOG
PHILLIPS       CLOUDY    28  26  92 S9        30.02F
ANTIGO         CLOUDY    26  26 100 S9        30.08S FOG
TOMAHAWK       CLOUDY    27  26  95 CALM      30.06F FOG
MERRILL        CLOUDY    28  28  96 S7        30.07F FOG
$$

WIZ013-073-211200-
NORTHEAST WISCONSIN

CITY           SKY/WX    TMP DP  RH WIND       PRES   REMARKS
IRON MOUNTAIN  CLOUDY    26  24  92 SE6       30.10S FOG
MARINETTE      CLOUDY    28  27  93 S5        30.15F
OCONTO         CLOUDY    30  28  94 CALM      30.15F
$$

WIZ017-030-035>037-045-211200-
CENTRAL WISCONSIN

CITY           SKY/WX    TMP DP  RH WIND       PRES   REMARKS
MEDFORD        CLOUDY    28  27  96 SE8       30.05F FOG
WAUSAU         CLOUDY    29  26  89 S8        30.08F FOG
MOSINEE        NOT AVBL
MARSHFIELD     CLOUDY    29  26  89 SE6       30.07F FOG
WISC RAPIDS    CLOUDY    29  26  89 SE3       30.11F FOG
STEVENS POINT  CLOUDY    28  26  95 S5        30.11F FOG
WAUPACA        CLOUDY    31  28  88 SE6       30.14F FOG
SHAWANO        CLOUDY    31  28  86 S5        30.14F FOG
CLINTONVILLE   CLOUDY    30  28  93 S5        30.13F FOG
$$

WIZ038-039-048-051-211200-
FOX VALLEY

CITY           SKY/WX    TMP DP  RH WIND       PRES   REMARKS
NWS GREEN BAY  CLOUDY    30  27  88 S5        30.15F FOG
APPLETON       NOT AVBL
OSHKOSH        CLOUDY    30  27  88 S6        30.15F FOG
FOND DU LAC    CLOUDY    31  26  82 S7        30.15F
$$

WIZ022-050-052-211200-
EAST CENTRAL WISCONSIN

CITY           SKY/WX    TMP DP  RH WIND       PRES   REMARKS
STURGEON BAY   CLOUDY    28  25  86 S5        30.17F
MANITOWOC      CLOUDY    31  28  89 S5        30.17F
SHEBOYGAN      CLOUDY    30  26  85 S6        30.17F
$$

LMZ563-521-522-541>543-211200-
LAKESHORE

STATION/POSITION TIME  TEMP    WIND        PRES    VSBY  WAVE
                       AIR SEA DIR/SP/G                  HT/PER
                 (UTC) (F)     (DEG/KT/KT) (MB)    (MI)  (FT/S)
SHEBOYGAN LKSHOR 1100   33 34  190/ 11/ 12 1022.6F
KEWAUNEE LKSHORE 1100   32     200/  5/  7 1020.7F
ALGOMA MARINA    1100          230/  9/ 10   N/A
NORTHPORT PIER   1100   30     160/  2/  4 1021.7F
SISTER BAY LKSHO 1100          140/  5/  7   N/A
CHAMBERS ISLAND  1100   30     160/  3/  5 1021.7F
MENOMINEE LKSHOR 1100   31     180/  6/ 10 1021.8F
$$



USA.gov is the U.S. government's official web portal to all federal, state and local government web resources and services.